Time,TemperatureF,DewpointF,PressureIn,WindDirection,WindDirectionDegrees,WindSpeedMPH,WindSpeedGustMPH,Humidity,HourlyPrecipIn,Conditions,Clouds,dailyrainin,SoftwareType,DateUTC
2013-04-05 00:02:00,45.8,31.5,30.11,NNE,15,5.0,6.0,57,0.00,,OVC110,0.00,VWS V14.01,2013-04-05 05:02:00,
2013-04-05 00:07:00,45.5,31.2,30.11,NNE,21,6.0,7.0,57,0.00,,OVC110,0.00,VWS V14.01,2013-04-05 05:07:00,
2013-04-05 00:12:00,45.3,31.0,30.11,NNE,27,5.0,8.0,57,0.00,,OVC110,0.00,VWS V14.01,2013-04-05 05:12:00,
2013-04-05 00:17:00,45.0,31.1,30.11,NNE,15,6.0,7.0,58,0.00,,OVC110,0.00,VWS V14.01,2013-04-05 05:17:00,
2013-04-05 00:22:00,44.7,30.9,30.11,NE,45,5.0,5.0,58,0.00,,OVC110,0.00,VWS V14.01,2013-04-05 05:22:00,
2013-04-05 00:27:00,44.6,31.2,30.11,NNE,21,4.0,6.0,59,0.00,,OVC110,0.00,VWS V14.01,2013-04-05 05:27:00,
2013-04-05 00:32:00,44.5,31.1,30.11,NNE,23,3.0,7.0,59,0.00,,OVC110,0.00,VWS V14.01,2013-04-05 05:32:00,
2013-04-05 00:37:00,44.5,31.1,30.11,NNE,33,3.0,6.0,59,0.00,,OVC110,0.00,VWS V14.01,2013-04-05 05:37:00,
2013-04-05 00:42:00,44.4,31.4,30.11,NE,41,2.0,5.0,60,0.00,,SCT200,0.00,VWS V14.01,2013-04-05 05:42:00,
2013-04-05 00:47:00,44.3,31.3,30.11,NE,41,3.0,6.0,60,0.00,,SCT200,0.00,VWS V14.01,2013-04-05 05:47:00,
2013-04-05 00:52:00,44.1,31.5,30.11,NE,48,3.0,4.0,61,0.00,,SCT200,0.00,VWS V14.01,2013-04-05 05:52:00,
2013-04-05 00:57:00,44.0,31.4,30.11,NE,49,3.0,3.0,61,0.00,,SCT200,0.00,VWS V14.01,2013-04-05 05:57:00,
2013-04-05 01:02:00,43.8,31.2,30.11,NE,35,0.0,4.0,61,0.00,,SCT200,0.00,VWS V14.01,2013-04-05 06:02:00,
2013-04-05 01:07:00,43.6,31.5,30.12,ENE,59,2.0,4.0,62,0.00,,SCT200,0.00,VWS V14.01,2013-04-05 06:07:00,
2013-04-05 01:12:00,43.4,31.3,30.11,NE,45,3.0,4.0,62,0.00,,SCT200,0.00,VWS V14.01,2013-04-05 06:12:00,
2013-04-05 01:17:00,43.2,31.5,30.12,NE,35,2.0,5.0,63,0.00,,SCT200,0.00,VWS V14.01,2013-04-05 06:17:00,
2013-04-05 01:22:00,43.0,31.3,30.12,NNE,30,4.0,4.0,63,0.00,,SCT200,0.00,VWS V14.01,2013-04-05 06:22:00,
2013-04-05 01:27:00,42.8,31.5,30.12,NE,47,2.0,3.0,64,0.00,,SCT200,0.00,VWS V14.01,2013-04-05 06:27:00,
2013-04-05 01:32:00,42.6,31.3,30.12,NE,41,2.0,4.0,64,0.00,,SCT200,0.00,VWS V14.01,2013-04-05 06:32:00,
2013-04-05 01:37:00,42.4,31.1,30.13,NNE,26,4.0,5.0,64,0.00,,SCT200,0.00,VWS V14.01,2013-04-05 06:37:00,
2013-04-05 01:42:00,42.2,31.3,30.13,NNE,23,3.0,4.0,65,0.00,,BKN250,0.00,VWS V14.01,2013-04-05 06:42:00,
2013-04-05 01:47:00,41.9,31.0,30.13,NNE,12,4.0,5.0,65,0.00,,BKN250,0.00,VWS V14.01,2013-04-05 06:47:00,
2013-04-05 01:52:00,41.6,31.1,30.13,NNE,27,4.0,6.0,66,0.00,,BKN250,0.00,VWS V14.01,2013-04-05 06:52:00,
2013-04-05 01:57:00,41.4,30.9,30.13,NNE,15,5.0,6.0,66,0.00,,BKN250,0.00,VWS V14.01,2013-04-05 06:57:00,
2013-04-05 02:02:00,41.3,31.2,30.13,NNE,20,5.0,8.0,67,0.00,,BKN250,0.00,VWS V14.01,2013-04-05 07:02:00,
2013-04-05 02:07:00,41.1,31.0,30.14,NNE,22,4.0,6.0,67,0.00,,BKN250,0.00,VWS V14.01,2013-04-05 07:07:00,
2013-04-05 02:12:00,41.0,31.3,30.14,NNE,23,4.0,5.0,68,0.00,,BKN250,0.00,VWS V14.01,2013-04-05 07:12:00,
2013-04-05 02:17:00,40.8,31.1,30.13,NNE,16,4.0,6.0,68,0.00,,BKN250,0.00,VWS V14.01,2013-04-05 07:17:00,
2013-04-05 02:22:00,40.7,31.3,30.13,NE,40,5.0,6.0,69,0.00,,BKN250,0.00,VWS V14.01,2013-04-05 07:22:00,
2013-04-05 02:27:00,40.7,31.3,30.13,NNE,21,2.0,5.0,69,0.00,,BKN250,0.00,VWS V14.01,2013-04-05 07:27:00,
2013-04-05 02:32:00,40.6,31.2,30.13,NNE,31,4.0,7.0,69,0.00,,BKN250,0.00,VWS V14.01,2013-04-05 07:32:00,
2013-04-05 02:37:00,40.6,31.6,30.13,NNE,21,5.0,6.0,70,0.00,,BKN250,0.00,VWS V14.01,2013-04-05 07:37:00,
2013-04-05 02:42:00,40.6,31.6,30.13,NE,37,4.0,7.0,70,0.00,,SCT250,0.00,VWS V14.01,2013-04-05 07:42:00,
2013-04-05 02:47:00,40.5,31.5,30.13,NNE,29,3.0,5.0,70,0.00,,SCT250,0.00,VWS V14.01,2013-04-05 07:47:00,
2013-04-05 02:52:00,40.3,31.3,30.13,NE,43,2.0,5.0,70,0.00,,SCT250,0.00,VWS V14.01,2013-04-05 07:52:00,
2013-04-05 02:57:00,40.2,31.6,30.13,NE,42,4.0,5.0,71,0.00,,SCT250,0.00,VWS V14.01,2013-04-05 07:57:00,
2013-04-05 03:03:00,40.1,31.5,30.13,NE,37,4.0,5.0,71,0.00,,SCT250,0.00,VWS V14.01,2013-04-05 08:03:00,
2013-04-05 03:08:00,39.9,31.3,30.13,NE,41,3.0,3.0,71,0.00,,SCT250,0.00,VWS V14.01,2013-04-05 08:08:00,
2013-04-05 03:13:00,39.7,31.4,30.13,NE,43,3.0,4.0,72,0.00,,SCT250,0.00,VWS V14.01,2013-04-05 08:13:00,
2013-04-05 03:18:00,39.5,31.2,30.13,ENE,63,2.0,5.0,72,0.00,,SCT250,0.00,VWS V14.01,2013-04-05 08:18:00,
2013-04-05 03:23:00,39.4,31.1,30.13,NNE,32,3.0,4.0,72,0.00,,SCT250,0.00,VWS V14.01,2013-04-05 08:23:00,
2013-04-05 03:28:00,39.2,31.3,30.13,NE,37,1.0,4.0,73,0.00,,SCT250,0.00,VWS V14.01,2013-04-05 08:28:00,
2013-04-05 03:33:00,39.1,31.2,30.13,NE,43,3.0,4.0,73,0.00,,SCT250,0.00,VWS V14.01,2013-04-05 08:33:00,
2013-04-05 03:38:00,38.9,31.3,30.13,NE,48,2.0,5.0,74,0.00,,SCT250,0.00,VWS V14.01,2013-04-05 08:38:00,
2013-04-05 03:43:00,38.7,31.1,30.13,NE,45,3.0,4.0,74,0.00,,SCT250,0.00,VWS V14.01,2013-04-05 08:43:00,
2013-04-05 03:48:00,38.6,31.0,30.13,NE,45,2.0,4.0,74,0.00,,SCT250,0.00,VWS V14.01,2013-04-05 08:48:00,
2013-04-05 03:53:00,38.4,31.2,30.13,NE,54,1.0,4.0,75,0.00,,SCT250,0.00,VWS V14.01,2013-04-05 08:53:00,
2013-04-05 03:58:00,38.4,31.2,30.13,East,79,6.0,6.0,75,0.00,,SCT250,0.00,VWS V14.01,2013-04-05 08:58:00,
2013-04-05 04:03:00,38.3,31.1,30.13,ENE,66,1.0,3.0,75,0.00,,SCT250,0.00,VWS V14.01,2013-04-05 09:03:00,
2013-04-05 04:08:00,38.2,31.0,30.13,NE,54,1.0,2.0,75,0.00,,SCT250,0.00,VWS V14.01,2013-04-05 09:08:00,
2013-04-05 04:13:00,38.0,31.1,30.13,East,79,3.0,4.0,76,0.00,,SCT250,0.00,VWS V14.01,2013-04-05 09:13:00,
2013-04-05 04:18:00,37.9,31.0,30.14,NNE,23,3.0,4.0,76,0.00,,SCT250,0.00,VWS V14.01,2013-04-05 09:18:00,
2013-04-05 04:23:00,37.8,30.9,30.14,NE,40,3.0,5.0,76,0.00,,SCT250,0.00,VWS V14.01,2013-04-05 09:23:00,
2013-04-05 04:28:00,37.7,30.8,30.14,NE,38,2.0,4.0,76,0.00,,SCT250,0.00,VWS V14.01,2013-04-05 09:28:00,
2013-04-05 04:33:00,37.6,31.1,30.14,NE,36,4.0,4.0,77,0.00,,SCT250,0.00,VWS V14.01,2013-04-05 09:33:00,
2013-04-05 04:38:00,37.5,31.0,30.14,NE,52,2.0,4.0,77,0.00,,SCT250,0.00,VWS V14.01,2013-04-05 09:38:00,
2013-04-05 04:43:00,37.4,30.9,30.14,NE,52,2.0,4.0,77,0.00,,SCT250,0.00,VWS V14.01,2013-04-05 09:43:00,
2013-04-05 04:49:00,37.3,30.8,30.14,NE,43,3.0,4.0,77,0.00,,SCT250,0.00,VWS V14.01,2013-04-05 09:49:00,
2013-04-05 04:54:00,37.3,30.8,30.14,NE,43,1.0,2.0,77,0.00,,SCT250,0.00,VWS V14.01,2013-04-05 09:54:00,
2013-04-05 04:59:00,37.1,30.9,30.14,NE,43,2.0,3.0,78,0.00,,SCT250,0.00,VWS V14.01,2013-04-05 09:59:00,
2013-04-05 05:04:00,37.0,30.8,30.14,NE,37,3.0,4.0,78,0.00,,SCT250,0.00,VWS V14.01,2013-04-05 10:04:00,
2013-04-05 05:09:00,36.8,30.6,30.14,NE,49,0.0,3.0,78,0.00,,SCT250,0.00,VWS V14.01,2013-04-05 10:09:00,
2013-04-05 05:14:00,36.7,30.8,30.14,NE,45,3.0,3.0,79,0.00,,SCT250,0.00,VWS V14.01,2013-04-05 10:14:00,
2013-04-05 05:19:00,36.5,30.6,30.14,ENE,60,1.0,3.0,79,0.00,,SCT250,0.00,VWS V14.01,2013-04-05 10:19:00,
2013-04-05 05:24:00,36.5,30.6,30.14,NE,50,2.0,4.0,79,0.00,,SCT250,0.00,VWS V14.01,2013-04-05 10:24:00,
2013-04-05 05:30:00,36.4,30.8,30.15,NE,48,2.0,3.0,80,0.00,,SCT250,0.00,VWS V14.01,2013-04-05 10:30:00,
2013-04-05 05:35:00,36.4,30.8,30.15,NE,39,3.0,4.0,80,0.00,,SCT250,0.00,VWS V14.01,2013-04-05 10:35:00,
2013-04-05 05:40:00,36.3,30.7,30.15,NE,56,0.0,4.0,80,0.00,,SCT250,0.00,VWS V14.01,2013-04-05 10:40:00,
2013-04-05 05:45:00,36.3,30.7,30.15,NE,48,1.0,3.0,80,0.00,,CLR,0.00,VWS V14.01,2013-04-05 10:45:00,
2013-04-05 05:50:00,36.1,30.5,30.15,NE,50,1.0,4.0,80,0.00,,CLR,0.00,VWS V14.01,2013-04-05 10:50:00,
2013-04-05 05:55:00,36.0,30.4,30.14,NE,53,2.0,5.0,80,0.00,,CLR,0.00,VWS V14.01,2013-04-05 10:55:00,
2013-04-05 06:00:00,35.9,30.3,30.14,NE,44,5.0,5.0,80,0.00,,CLR,0.00,VWS V14.01,2013-04-05 11:00:00,
2013-04-05 06:05:00,35.8,30.5,30.15,NNE,33,5.0,5.0,81,0.00,,CLR,0.00,VWS V14.01,2013-04-05 11:05:00,
2013-04-05 06:10:00,35.6,30.4,30.15,NNE,29,3.0,4.0,81,0.00,,CLR,0.00,VWS V14.01,2013-04-05 11:10:00,
2013-04-05 06:15:00,35.6,30.4,30.15,NE,45,5.0,5.0,81,0.00,,CLR,0.00,VWS V14.01,2013-04-05 11:15:00,
2013-04-05 06:20:00,35.4,30.2,30.15,NE,48,2.0,6.0,81,0.00,,CLR,0.00,VWS V14.01,2013-04-05 11:20:00,
2013-04-05 06:25:00,35.3,30.1,30.15,NE,43,3.0,6.0,81,0.00,,CLR,0.00,VWS V14.01,2013-04-05 11:25:00,
2013-04-05 06:30:00,35.2,30.0,30.15,NE,55,4.0,5.0,81,0.00,,CLR,0.00,VWS V14.01,2013-04-05 11:30:00,
2013-04-05 06:35:00,35.1,29.9,30.15,NE,39,2.0,4.0,81,0.00,,CLR,0.00,VWS V14.01,2013-04-05 11:35:00,
2013-04-05 06:40:00,35.0,30.1,30.15,NE,50,1.0,5.0,82,0.00,,CLR,0.00,VWS V14.01,2013-04-05 11:40:00,
2013-04-05 06:45:00,34.9,30.0,30.16,NE,48,4.0,4.0,82,0.00,,SCT250,0.00,VWS V14.01,2013-04-05 11:45:00,
2013-04-05 06:50:00,34.9,30.0,30.16,ENE,64,0.0,3.0,82,0.00,,SCT250,0.00,VWS V14.01,2013-04-05 11:50:00,
2013-04-05 06:55:00,34.8,29.9,30.16,NE,56,2.0,3.0,82,0.00,,SCT250,0.00,VWS V14.01,2013-04-05 11:55:00,
2013-04-05 07:00:00,34.7,29.8,30.16,ENE,60,1.0,2.0,82,0.00,,SCT250,0.00,VWS V14.01,2013-04-05 12:00:00,
2013-04-05 07:05:00,34.6,29.7,30.16,ENE,64,2.0,3.0,82,0.00,,SCT250,0.00,VWS V14.01,2013-04-05 12:05:00,
2013-04-05 07:10:00,34.4,29.5,30.16,NE,56,3.0,3.0,82,0.00,,SCT250,0.00,VWS V14.01,2013-04-05 12:10:00,
2013-04-05 07:15:00,34.3,29.4,30.16,NE,52,3.0,3.0,82,0.00,,SCT250,0.00,VWS V14.01,2013-04-05 12:15:00,
2013-04-05 07:20:00,34.2,29.3,30.16,ENE,59,1.0,4.0,82,0.00,,SCT250,0.00,VWS V14.01,2013-04-05 12:20:00,
2013-04-05 07:25:00,34.1,29.5,30.16,NE,53,1.0,3.0,83,0.00,,SCT250,0.00,VWS V14.01,2013-04-05 12:25:00,
2013-04-05 07:30:00,34.1,29.5,30.17,NE,52,2.0,4.0,83,0.00,,SCT250,0.00,VWS V14.01,2013-04-05 12:30:00,
2013-04-05 07:35:00,34.1,29.5,30.17,NE,55,3.0,4.0,83,0.00,,SCT250,0.00,VWS V14.01,2013-04-05 12:35:00,
2013-04-05 07:40:00,34.4,29.8,30.16,NE,34,3.0,3.0,83,0.00,,SCT250,0.00,VWS V14.01,2013-04-05 12:40:00,
2013-04-05 07:45:00,34.7,30.1,30.16,ENE,68,3.0,4.0,83,0.00,,SCT250,0.00,VWS V14.01,2013-04-05 12:45:00,
2013-04-05 07:50:00,35.1,30.2,30.16,ENE,62,1.0,3.0,82,0.00,,BKN250,0.00,VWS V14.01,2013-04-05 12:50:00,
2013-04-05 07:56:00,35.5,30.3,30.16,ENE,68,3.0,5.0,81,0.00,,BKN250,0.00,VWS V14.01,2013-04-05 12:56:00,
2013-04-05 08:01:00,35.9,30.6,30.16,ENE,70,7.0,7.0,81,0.00,,BKN250,0.00,VWS V14.01,2013-04-05 13:01:00,
2013-04-05 08:06:00,36.1,30.5,30.16,ENE,76,4.0,7.0,80,0.00,,BKN250,0.00,VWS V14.01,2013-04-05 13:06:00,
2013-04-05 08:11:00,36.4,30.8,30.16,ENE,73,4.0,5.0,80,0.00,,BKN250,0.00,VWS V14.01,2013-04-05 13:11:00,
2013-04-05 08:16:00,36.7,30.8,30.15,East,92,6.0,7.0,79,0.00,,BKN250,0.00,VWS V14.01,2013-04-05 13:16:00,
2013-04-05 08:21:00,36.5,30.6,30.16,ESE,117,3.0,5.0,79,0.00,,BKN250,0.00,VWS V14.01,2013-04-05 13:21:00,
2013-04-05 08:26:00,36.2,30.6,30.16,ENE,71,0.0,3.0,80,0.00,,BKN250,0.00,VWS V14.01,2013-04-05 13:26:00,
2013-04-05 08:32:00,36.1,30.5,30.16,ESE,110,3.0,4.0,80,0.00,,BKN250,0.00,VWS V14.01,2013-04-05 13:32:00,
2013-04-05 08:37:00,36.0,30.8,30.16,NE,54,2.0,6.0,81,0.00,,BKN250,0.00,VWS V14.01,2013-04-05 13:37:00,
2013-04-05 08:42:00,36.0,30.8,30.15,ESE,110,5.0,6.0,81,0.00,,BKN250,0.00,VWS V14.01,2013-04-05 13:42:00,
2013-04-05 08:47:00,36.0,30.8,30.14,ESE,110,4.0,8.0,81,0.00,,BKN250,0.00,VWS V14.01,2013-04-05 13:47:00,
2013-04-05 08:52:00,36.5,31.5,30.15,SE,130,2.0,6.0,82,0.00,,BKN250,0.00,VWS V14.01,2013-04-05 13:52:00,
2013-04-05 08:57:00,37.3,32.0,30.15,East,97,3.0,6.0,81,0.00,,BKN250,0.00,VWS V14.01,2013-04-05 13:57:00,
2013-04-05 09:02:00,37.9,32.3,30.15,East,93,6.0,7.0,80,0.00,,BKN250,0.00,VWS V14.01,2013-04-05 14:02:00,
2013-04-05 09:07:00,38.5,32.6,30.15,ESE,117,5.0,9.0,79,0.00,,BKN250,0.00,VWS V14.01,2013-04-05 14:07:00,
2013-04-05 09:12:00,39.2,33.2,30.15,SE,126,4.0,7.0,79,0.00,,BKN250,0.00,VWS V14.01,2013-04-05 14:12:00,
2013-04-05 09:17:00,39.7,33.4,30.15,East,88,3.0,5.0,78,0.00,,BKN250,0.00,VWS V14.01,2013-04-05 14:17:00,
2013-04-05 09:22:00,39.8,32.9,30.14,ESE,112,5.0,8.0,76,0.00,,BKN250,0.00,VWS V14.01,2013-04-05 14:22:00,
2013-04-05 09:27:00,40.4,33.5,30.14,SE,125,4.0,5.0,76,0.00,,BKN250,0.00,VWS V14.01,2013-04-05 14:27:00,
2013-04-05 09:32:00,40.7,33.7,30.14,SE,139,5.0,8.0,76,0.00,,BKN250,0.00,VWS V14.01,2013-04-05 14:32:00,
2013-04-05 09:37:00,41.8,34.1,30.14,East,89,6.0,8.0,74,0.00,,BKN250,0.00,VWS V14.01,2013-04-05 14:37:00,
2013-04-05 09:42:00,42.9,33.8,30.14,ESE,121,5.0,9.0,70,0.00,,BKN250,0.00,VWS V14.01,2013-04-05 14:42:00,
2013-04-05 09:48:00,43.2,34.1,30.14,SE,145,8.0,9.0,70,0.00,,BKN250,0.00,VWS V14.01,2013-04-05 14:48:00,
2013-04-05 09:53:00,43.7,34.2,30.14,SE,129,4.0,9.0,69,0.00,,BKN250,0.00,VWS V14.01,2013-04-05 14:53:00,
2013-04-05 09:58:00,44.3,34.0,30.13,East,87,6.0,10.0,67,0.00,,BKN250,0.00,VWS V14.01,2013-04-05 14:58:00,
2013-04-05 10:04:00,45.0,34.3,30.13,South,178,4.0,13.0,66,0.00,,BKN250,0.00,VWS V14.01,2013-04-05 15:04:00,
2013-04-05 10:09:00,45.5,34.8,30.13,SE,127,7.0,12.0,66,0.00,,BKN250,0.00,VWS V14.01,2013-04-05 15:09:00,
2013-04-05 10:14:00,45.8,34.7,30.13,East,93,11.0,11.0,65,0.00,,BKN250,0.00,VWS V14.01,2013-04-05 15:14:00,
2013-04-05 10:19:00,46.5,35.4,30.13,SSE,148,4.0,7.0,65,0.00,,BKN250,0.00,VWS V14.01,2013-04-05 15:19:00,
2013-04-05 10:24:00,47.3,35.8,30.13,ESE,105,8.0,10.0,64,0.00,,BKN250,0.00,VWS V14.01,2013-04-05 15:24:00,
2013-04-05 10:29:00,47.9,35.5,30.13,SSE,152,7.0,9.0,62,0.00,,BKN250,0.00,VWS V14.01,2013-04-05 15:29:00,
2013-04-05 10:35:00,48.7,35.9,30.12,ESE,104,4.0,9.0,61,0.00,,BKN250,0.00,VWS V14.01,2013-04-05 15:35:00,
2013-04-05 10:39:00,49.2,35.9,30.13,SSE,168,7.0,11.0,60,0.00,,BKN250,0.00,VWS V14.01,2013-04-05 15:39:00,
2013-04-05 10:45:00,49.6,35.5,30.13,SE,141,9.0,11.0,58,0.00,,BKN250,0.00,VWS V14.01,2013-04-05 15:45:00,
2013-04-05 10:50:00,49.5,35.3,30.13,SE,143,6.0,9.0,58,0.00,,BKN250,0.00,VWS V14.01,2013-04-05 15:50:00,
2013-04-05 10:55:00,50.1,36.8,30.12,SSE,155,9.0,11.0,60,0.00,,BKN250,0.00,VWS V14.01,2013-04-05 15:55:00,
2013-04-05 11:00:00,50.2,34.7,30.12,SSE,153,8.0,13.0,55,0.00,,BKN250,0.00,VWS V14.01,2013-04-05 16:00:00,
2013-04-05 11:05:00,50.6,35.9,30.12,ESE,115,10.0,10.0,57,0.00,,BKN250,0.00,VWS V14.01,2013-04-05 16:05:00,
2013-04-05 11:10:00,51.1,35.5,30.12,SSE,149,7.0,14.0,55,0.00,,BKN250,0.00,VWS V14.01,2013-04-05 16:10:00,
2013-04-05 11:15:00,51.8,36.6,30.12,SSE,155,7.0,11.0,56,0.00,,BKN250,0.00,VWS V14.01,2013-04-05 16:15:00,
2013-04-05 11:20:00,52.6,35.5,30.12,SE,125,5.0,12.0,52,0.00,,BKN250,0.00,VWS V14.01,2013-04-05 16:20:00,
2013-04-05 11:25:00,52.5,35.9,30.11,SSE,164,6.0,15.0,53,0.00,,BKN250,0.00,VWS V14.01,2013-04-05 16:25:00,
2013-04-05 11:30:00,53.1,36.0,30.10,SE,142,7.0,15.0,52,0.00,,BKN250,0.00,VWS V14.01,2013-04-05 16:30:00,
2013-04-05 11:35:00,53.9,36.2,30.10,SSE,148,12.0,14.0,51,0.00,,BKN250,0.00,VWS V14.01,2013-04-05 16:35:00,
2013-04-05 11:40:00,53.9,35.7,30.10,SE,141,9.0,13.0,50,0.00,,BKN250,0.00,VWS V14.01,2013-04-05 16:40:00,
2013-04-05 11:45:00,54.1,36.4,30.10,SSE,147,6.0,15.0,51,0.00,,BKN250,0.00,VWS V14.01,2013-04-05 16:45:00,
2013-04-05 11:50:00,54.4,36.7,30.09,SSE,152,10.0,16.0,51,0.00,,BKN250,0.00,VWS V14.01,2013-04-05 16:50:00,
2013-04-05 11:55:00,54.8,37.0,30.09,South,184,12.0,15.0,51,0.00,,BKN250,0.00,VWS V14.01,2013-04-05 16:55:00,
2013-04-05 12:00:00,55.3,37.0,30.09,South,172,12.0,16.0,50,0.00,,BKN250,0.00,VWS V14.01,2013-04-05 17:00:00,
2013-04-05 12:05:00,55.1,36.3,30.08,SSE,164,5.0,9.0,49,0.00,,BKN250,0.00,VWS V14.01,2013-04-05 17:05:00,
2013-04-05 12:10:00,55.9,37.0,30.08,SE,129,8.0,12.0,49,0.00,,BKN250,0.00,VWS V14.01,2013-04-05 17:10:00,
2013-04-05 12:15:00,56.5,37.1,30.08,SSE,164,13.0,17.0,48,0.00,,BKN250,0.00,VWS V14.01,2013-04-05 17:15:00,
2013-04-05 12:20:00,56.8,36.8,30.08,South,173,14.0,15.0,47,0.00,,BKN250,0.00,VWS V14.01,2013-04-05 17:20:00,
2013-04-05 12:25:00,57.2,38.2,30.07,South,190,11.0,17.0,49,0.00,,BKN250,0.00,VWS V14.01,2013-04-05 17:25:00,
2013-04-05 12:30:00,57.9,38.3,30.06,SSE,150,10.0,14.0,48,0.00,,BKN250,0.00,VWS V14.01,2013-04-05 17:30:00,
2013-04-05 12:35:00,57.8,38.3,30.06,SSE,153,9.0,15.0,48,0.00,,BKN250,0.00,VWS V14.01,2013-04-05 17:35:00,
2013-04-05 12:40:00,58.5,38.4,30.06,SSE,149,14.0,19.0,47,0.00,,BKN250,0.00,VWS V14.01,2013-04-05 17:40:00,
2013-04-05 12:45:00,58.7,37.4,30.06,South,170,10.0,19.0,45,0.00,,BKN250,0.00,VWS V14.01,2013-04-05 17:45:00,
2013-04-05 12:50:00,59.3,39.6,30.05,SSE,147,12.0,14.0,48,0.00,,BKN250,0.00,VWS V14.01,2013-04-05 17:50:00,
2013-04-05 12:55:00,59.3,38.5,30.05,South,170,13.0,13.0,46,0.00,,BKN250,0.00,VWS V14.01,2013-04-05 17:55:00,
2013-04-05 13:00:00,59.3,38.5,30.04,SE,139,9.0,14.0,46,0.00,,BKN250,0.00,VWS V14.01,2013-04-05 18:00:00,
2013-04-05 13:05:00,59.8,39.0,30.04,SSE,164,15.0,16.0,46,0.00,,BKN250,0.00,VWS V14.01,2013-04-05 18:05:00,
2013-04-05 13:11:00,60.0,38.6,30.03,SE,126,11.0,15.0,45,0.00,,BKN250,0.00,VWS V14.01,2013-04-05 18:11:00,
2013-04-05 13:16:00,60.1,38.1,30.03,SSE,154,10.0,19.0,44,0.00,,BKN250,0.00,VWS V14.01,2013-04-05 18:16:00,
2013-04-05 13:21:00,60.2,38.2,30.02,SSE,156,8.0,16.0,44,0.00,,BKN250,0.00,VWS V14.01,2013-04-05 18:21:00,
2013-04-05 13:26:00,60.4,38.4,30.02,South,183,15.0,18.0,44,0.00,,BKN250,0.00,VWS V14.01,2013-04-05 18:26:00,
2013-04-05 13:31:00,60.5,38.5,30.02,SSE,148,10.0,15.0,44,0.00,,BKN250,0.00,VWS V14.01,2013-04-05 18:31:00,
2013-04-05 13:36:00,61.1,39.0,30.01,SSE,152,14.0,16.0,44,0.00,,BKN250,0.00,VWS V14.01,2013-04-05 18:36:00,
2013-04-05 13:41:00,61.3,38.6,30.00,SSE,154,15.0,20.0,43,0.00,,BKN250,0.00,VWS V14.01,2013-04-05 18:41:00,
2013-04-05 13:46:00,61.8,39.1,30.00,SSE,160,8.0,13.0,43,0.00,,BKN250,0.00,VWS V14.01,2013-04-05 18:46:00,
2013-04-05 13:51:00,62.1,39.4,29.99,SE,146,16.0,17.0,43,0.00,,BKN250,0.00,VWS V14.01,2013-04-05 18:51:00,
2013-04-05 13:56:00,62.4,39.6,29.99,SSE,151,8.0,13.0,43,0.00,,BKN250,0.00,VWS V14.01,2013-04-05 18:56:00,
2013-04-05 14:01:00,62.4,39.0,29.99,SSE,160,9.0,17.0,42,0.00,,BKN250,0.00,VWS V14.01,2013-04-05 19:01:00,
2013-04-05 14:06:00,62.6,39.8,29.98,South,174,11.0,18.0,43,0.00,,BKN250,0.00,VWS V14.01,2013-04-05 19:06:00,
2013-04-05 14:11:00,62.6,39.8,29.98,SE,145,12.0,13.0,43,0.00,,BKN250,0.00,VWS V14.01,2013-04-05 19:11:00,
2013-04-05 14:17:00,62.8,40.0,29.98,South,173,13.0,18.0,43,0.00,,BKN250,0.00,VWS V14.01,2013-04-05 19:17:00,
2013-04-05 14:22:00,63.1,40.3,29.98,South,179,14.0,16.0,43,0.00,,BKN250,0.00,VWS V14.01,2013-04-05 19:22:00,
2013-04-05 14:27:00,63.3,41.0,29.98,South,173,9.0,15.0,44,0.00,,BKN250,0.00,VWS V14.01,2013-04-05 19:27:00,
2013-04-05 14:32:00,64.0,41.1,29.97,SSE,154,10.0,19.0,43,0.00,,BKN250,0.00,VWS V14.01,2013-04-05 19:32:00,
2013-04-05 14:37:00,64.2,40.0,29.97,SE,139,12.0,18.0,41,0.00,,BKN250,0.00,VWS V14.01,2013-04-05 19:37:00,
2013-04-05 14:42:00,63.6,39.5,29.96,SSE,157,13.0,24.0,41,0.00,,BKN250,0.00,VWS V14.01,2013-04-05 19:42:00,
2013-04-05 14:47:00,63.5,41.2,29.96,South,191,12.0,16.0,44,0.00,,BKN250,0.00,VWS V14.01,2013-04-05 19:47:00,
2013-04-05 14:52:00,64.0,41.1,29.95,South,191,12.0,16.0,43,0.00,,BKN250,0.00,VWS V14.01,2013-04-05 19:52:00,
2013-04-05 14:57:00,64.5,41.5,29.95,South,191,11.0,16.0,43,0.00,,BKN250,0.00,VWS V14.01,2013-04-05 19:57:00,
2013-04-05 15:02:00,65.0,40.8,29.94,SSE,163,24.0,25.0,41,0.00,,BKN250,0.00,VWS V14.01,2013-04-05 20:02:00,
2013-04-05 15:08:00,65.3,41.0,29.94,South,174,15.0,19.0,41,0.00,,BKN250,0.00,VWS V14.01,2013-04-05 20:08:00,
2013-04-05 15:13:00,66.3,40.6,29.93,SSE,154,15.0,25.0,39,0.00,,BKN250,0.00,VWS V14.01,2013-04-05 20:13:00,
2013-04-05 15:18:00,65.7,40.7,29.93,South,183,12.0,17.0,40,0.00,,BKN250,0.00,VWS V14.01,2013-04-05 20:18:00,
2013-04-05 15:23:00,66.0,41.7,29.92,South,181,9.0,18.0,41,0.00,,BKN250,0.00,VWS V14.01,2013-04-05 20:23:00,
2013-04-05 15:28:00,65.9,40.3,29.92,South,179,16.0,23.0,39,0.00,,BKN250,0.00,VWS V14.01,2013-04-05 20:28:00,
2013-04-05 15:33:00,66.1,41.1,29.91,South,183,22.0,22.0,40,0.00,,BKN250,0.00,VWS V14.01,2013-04-05 20:33:00,
2013-04-05 15:38:00,66.4,41.4,29.91,SSW,192,18.0,19.0,40,0.00,,BKN250,0.00,VWS V14.01,2013-04-05 20:38:00,
2013-04-05 15:43:00,67.0,41.9,29.91,SSE,161,13.0,17.0,40,0.00,,OVC250,0.00,VWS V14.01,2013-04-05 20:43:00,
2013-04-05 15:48:00,66.6,40.9,29.90,South,187,10.0,15.0,39,0.00,,OVC250,0.00,VWS V14.01,2013-04-05 20:48:00,
2013-04-05 15:53:00,66.2,40.5,29.90,South,183,11.0,22.0,39,0.00,,OVC250,0.00,VWS V14.01,2013-04-05 20:53:00,
2013-04-05 15:59:00,67.0,41.2,29.89,South,191,20.0,20.0,39,0.00,,OVC250,0.00,VWS V14.01,2013-04-05 20:59:00,
2013-04-05 16:04:00,67.4,40.9,29.89,South,189,18.0,23.0,38,0.00,,OVC250,0.00,VWS V14.01,2013-04-05 21:04:00,
2013-04-05 16:09:00,67.6,40.4,29.88,South,177,12.0,24.0,37,0.00,,OVC250,0.00,VWS V14.01,2013-04-05 21:09:00,
2013-04-05 16:14:00,68.1,41.6,29.88,SSE,160,21.0,26.0,38,0.00,,OVC250,0.00,VWS V14.01,2013-04-05 21:14:00,
2013-04-05 16:19:00,68.1,40.9,29.87,SE,135,13.0,23.0,37,0.00,,OVC250,0.00,VWS V14.01,2013-04-05 21:19:00,
2013-04-05 16:24:00,67.9,41.4,29.87,South,178,18.0,22.0,38,0.00,,OVC250,0.00,VWS V14.01,2013-04-05 21:24:00,
2013-04-05 16:32:00,67.2,40.8,29.87,SSW,199,17.0,22.0,38,0.00,,OVC250,0.00,VWS V14.01,2013-04-05 21:32:00,
2013-04-05 16:37:00,66.7,40.3,29.86,SSE,165,12.0,19.0,38,0.00,,OVC250,0.00,VWS V14.01,2013-04-05 21:37:00,
2013-04-05 16:47:00,67.1,41.3,29.85,South,175,15.0,22.0,39,0.00,,OVC250,0.00,VWS V14.01,2013-04-05 21:47:00,
2013-04-05 16:52:00,67.2,40.8,29.85,South,179,15.0,18.0,38,0.00,,OVC250,0.00,VWS V14.01,2013-04-05 21:52:00,
2013-04-05 16:58:00,67.5,40.3,29.85,South,180,16.0,20.0,37,0.00,,OVC250,0.00,VWS V14.01,2013-04-05 21:58:00,
2013-04-05 17:03:00,67.5,39.6,29.84,SSE,152,10.0,24.0,36,0.00,,OVC250,0.00,VWS V14.01,2013-04-05 22:03:00,
2013-04-05 17:08:00,67.4,40.2,29.84,South,187,19.0,20.0,37,0.00,,OVC250,0.00,VWS V14.01,2013-04-05 22:08:00,
2013-04-05 17:13:00,67.5,39.6,29.84,SSE,160,12.0,22.0,36,0.00,,OVC250,0.00,VWS V14.01,2013-04-05 22:13:00,
2013-04-05 17:18:00,67.5,40.3,29.84,SSE,158,13.0,17.0,37,0.00,,OVC250,0.00,VWS V14.01,2013-04-05 22:18:00,
2013-04-05 17:23:00,67.6,39.7,29.83,South,179,14.0,17.0,36,0.00,,OVC250,0.00,VWS V14.01,2013-04-05 22:23:00,
2013-04-05 17:28:00,67.5,39.6,29.83,SSE,160,17.0,22.0,36,0.00,,OVC250,0.00,VWS V14.01,2013-04-05 22:28:00,
2013-04-05 17:33:00,67.5,39.6,29.82,South,176,14.0,23.0,36,0.00,,OVC250,0.00,VWS V14.01,2013-04-05 22:33:00,
2013-04-05 17:38:00,67.6,39.7,29.82,South,178,16.0,26.0,36,0.00,,OVC250,0.00,VWS V14.01,2013-04-05 22:38:00,
2013-04-05 17:43:00,67.7,39.8,29.82,South,182,13.0,22.0,36,0.00,,OVC250,0.00,VWS V14.01,2013-04-05 22:43:00,
2013-04-05 17:48:00,67.5,39.6,29.83,South,182,14.0,17.0,36,0.00,,OVC250,0.00,VWS V14.01,2013-04-05 22:48:00,
2013-04-05 17:53:00,67.6,39.7,29.83,South,185,24.0,26.0,36,0.00,,OVC250,0.00,VWS V14.01,2013-04-05 22:53:00,
2013-04-05 17:58:00,67.7,39.8,29.83,SSE,161,22.0,25.0,36,0.00,,OVC250,0.00,VWS V14.01,2013-04-05 22:58:00,
2013-04-05 18:03:00,67.9,40.0,29.83,South,191,16.0,22.0,36,0.00,,OVC250,0.00,VWS V14.01,2013-04-05 23:03:00,
2013-04-05 18:08:00,68.0,40.1,29.83,South,187,22.0,22.0,36,0.00,,OVC250,0.00,VWS V14.01,2013-04-05 23:08:00,
2013-04-05 18:13:00,67.9,40.0,29.82,South,179,11.0,18.0,36,0.00,,OVC250,0.00,VWS V14.01,2013-04-05 23:13:00,
2013-04-05 18:18:00,67.8,39.9,29.83,South,187,25.0,25.0,36,0.00,,OVC250,0.00,VWS V14.01,2013-04-05 23:18:00,
2013-04-05 18:23:00,67.7,39.8,29.82,South,178,16.0,22.0,36,0.00,,OVC250,0.00,VWS V14.01,2013-04-05 23:23:00,
2013-04-05 18:28:00,67.6,39.7,29.82,South,181,17.0,21.0,36,0.00,,OVC250,0.00,VWS V14.01,2013-04-05 23:28:00,
2013-04-05 18:33:00,67.4,39.5,29.82,South,177,15.0,22.0,36,0.00,,OVC250,0.00,VWS V14.01,2013-04-05 23:33:00,
2013-04-05 18:38:00,67.3,39.5,29.82,South,182,11.0,17.0,36,0.00,,OVC250,0.00,VWS V14.01,2013-04-05 23:38:00,
2013-04-05 18:43:00,67.1,39.3,29.81,South,189,13.0,18.0,36,0.00,,OVC250,0.00,VWS V14.01,2013-04-05 23:43:00,
2013-04-05 18:48:00,66.9,39.8,29.82,SSE,168,11.0,19.0,37,0.00,,OVC250,0.00,VWS V14.01,2013-04-05 23:48:00,
2013-04-05 18:53:00,66.8,39.7,29.81,SSE,164,10.0,17.0,37,0.00,,OVC250,0.00,VWS V14.01,2013-04-05 23:53:00,
2013-04-05 18:58:00,66.5,39.5,29.81,South,189,12.0,23.0,37,0.00,,OVC250,0.00,VWS V14.01,2013-04-05 23:58:00,
2013-04-05 19:03:00,66.4,38.7,29.81,South,184,18.0,27.0,36,0.00,,OVC250,0.00,VWS V14.01,2013-04-06 00:03:00,
2013-04-05 19:08:00,66.3,38.6,29.81,SSE,159,16.0,18.0,36,0.00,,OVC250,0.00,VWS V14.01,2013-04-06 00:08:00,
2013-04-05 19:13:00,66.1,38.4,29.81,SSE,158,17.0,18.0,36,0.00,,OVC250,0.00,VWS V14.01,2013-04-06 00:13:00,
2013-04-05 19:18:00,66.1,38.4,29.81,South,173,11.0,22.0,36,0.00,,OVC250,0.00,VWS V14.01,2013-04-06 00:18:00,
2013-04-05 19:23:00,65.9,38.2,29.81,South,180,12.0,16.0,36,0.00,,OVC250,0.00,VWS V14.01,2013-04-06 00:23:00,
2013-04-05 19:29:00,65.4,38.5,29.81,SSE,164,12.0,13.0,37,0.00,,OVC250,0.00,VWS V14.01,2013-04-06 00:29:00,
2013-04-05 19:34:00,65.2,39.0,29.80,SSE,166,11.0,16.0,38,0.00,,OVC250,0.00,VWS V14.01,2013-04-06 00:34:00,
2013-04-05 19:39:00,64.9,38.7,29.80,SSE,164,16.0,17.0,38,0.00,,OVC250,0.00,VWS V14.01,2013-04-06 00:39:00,
2013-04-05 19:44:00,64.9,39.4,29.80,SSW,197,11.0,18.0,39,0.00,,OVC250,0.00,VWS V14.01,2013-04-06 00:44:00,
2013-04-05 19:49:00,64.8,39.3,29.80,South,187,13.0,17.0,39,0.00,,OVC250,0.00,VWS V14.01,2013-04-06 00:49:00,
2013-04-05 19:54:00,64.6,39.1,29.80,South,177,12.0,17.0,39,0.00,,OVC250,0.00,VWS V14.01,2013-04-06 00:54:00,
2013-04-05 19:59:00,63.9,39.1,29.79,SSE,151,17.0,17.0,40,0.00,,OVC250,0.00,VWS V14.01,2013-04-06 00:59:00,
2013-04-05 20:04:00,63.7,39.6,29.78,South,174,18.0,18.0,41,0.00,,OVC250,0.00,VWS V14.01,2013-04-06 01:04:00,
2013-04-05 20:09:00,63.7,39.6,29.78,SSE,166,15.0,19.0,41,0.00,,OVC250,0.00,VWS V14.01,2013-04-06 01:09:00,
2013-04-05 20:14:00,63.8,39.0,29.78,South,177,13.0,22.0,40,0.00,,OVC250,0.00,VWS V14.01,2013-04-06 01:14:00,
2013-04-05 20:19:00,63.6,39.5,29.78,SSW,202,17.0,17.0,41,0.00,,OVC250,0.00,VWS V14.01,2013-04-06 01:19:00,
2013-04-05 20:25:00,63.6,39.5,29.78,South,172,12.0,18.0,41,0.00,,OVC250,0.00,VWS V14.01,2013-04-06 01:25:00,
2013-04-05 20:30:00,63.3,39.2,29.78,SSE,160,12.0,15.0,41,0.00,,OVC250,0.00,VWS V14.01,2013-04-06 01:30:00,
2013-04-05 20:35:00,63.0,39.6,29.78,South,177,15.0,18.0,42,0.00,,OVC250,0.00,VWS V14.01,2013-04-06 01:35:00,
2013-04-05 20:40:00,62.9,39.5,29.78,SSE,165,16.0,22.0,42,0.00,,OVC250,0.00,VWS V14.01,2013-04-06 01:40:00,
2013-04-05 20:45:00,62.7,39.3,29.78,South,169,13.0,19.0,42,0.00,,OVC250,0.00,VWS V14.01,2013-04-06 01:45:00,
2013-04-05 20:50:00,62.6,39.2,29.78,South,169,11.0,23.0,42,0.00,,OVC250,0.00,VWS V14.01,2013-04-06 01:50:00,
2013-04-05 20:55:00,62.2,38.8,29.78,South,170,10.0,17.0,42,0.00,,OVC250,0.00,VWS V14.01,2013-04-06 01:55:00,
2013-04-05 21:00:00,61.8,39.1,29.78,South,181,9.0,15.0,43,0.00,,OVC250,0.00,VWS V14.01,2013-04-06 02:00:00,
2013-04-05 21:05:00,61.8,39.1,29.78,South,182,19.0,19.0,43,0.00,,OVC250,0.00,VWS V14.01,2013-04-06 02:05:00,
2013-04-05 21:10:00,61.6,38.9,29.77,South,172,12.0,18.0,43,0.00,,OVC250,0.00,VWS V14.01,2013-04-06 02:10:00,
2013-04-05 21:16:00,61.4,39.3,29.77,SSE,164,16.0,18.0,44,0.00,,OVC250,0.00,VWS V14.01,2013-04-06 02:16:00,
2013-04-05 21:21:00,61.3,39.8,29.77,SSE,166,10.0,18.0,45,0.00,,OVC250,0.00,VWS V14.01,2013-04-06 02:21:00,
2013-04-05 21:26:00,61.3,39.8,29.77,South,174,9.0,20.0,45,0.00,,OVC250,0.00,VWS V14.01,2013-04-06 02:26:00,
2013-04-05 21:31:00,61.2,39.7,29.77,SSE,150,17.0,17.0,45,0.00,,OVC250,0.00,VWS V14.01,2013-04-06 02:31:00,
2013-04-05 21:36:00,61.2,40.3,29.77,South,185,10.0,18.0,46,0.00,,OVC250,0.00,VWS V14.01,2013-04-06 02:36:00,
2013-04-05 21:42:00,61.2,39.7,29.77,South,180,14.0,19.0,45,0.00,,SCT200,0.00,VWS V14.01,2013-04-06 02:42:00,
2013-04-05 21:47:00,61.1,39.6,29.77,SSE,158,11.0,18.0,45,0.00,,SCT200,0.00,VWS V14.01,2013-04-06 02:47:00,
2013-04-05 21:52:00,61.0,39.5,29.77,South,191,11.0,20.0,45,0.00,,OVC250,0.00,VWS V14.01,2013-04-06 02:52:00,
2013-04-05 22:09:00,61.3,39.2,29.76,South,172,17.0,18.0,44,0.00,,OVC250,0.00,VWS V14.01,2013-04-06 03:09:00,
2013-04-05 22:48:00,60.3,41.1,29.75,South,177,21.0,22.0,49,0.00,,OVC250,0.00,VWS V14.01,2013-04-06 03:48:00,
2013-04-05 22:53:00,60.4,40.6,29.75,South,174,18.0,21.0,48,0.00,,OVC250,0.00,VWS V14.01,2013-04-06 03:53:00,
2013-04-05 22:58:00,60.3,41.1,29.75,South,190,9.0,19.0,49,0.00,,OVC250,0.00,VWS V14.01,2013-04-06 03:58:00,
2013-04-05 23:00:00,60.1,40.9,29.75,SSW,195,9.0,17.0,49,0.00,,OVC250,0.00,VWS V14.01,2013-04-06 04:00:00,
2013-04-05 23:05:00,60.0,40.8,29.75,South,176,14.0,16.0,49,0.00,,OVC250,0.00,VWS V14.01,2013-04-06 04:05:00,
2013-04-05 23:10:00,59.9,40.7,29.74,South,191,18.0,21.0,49,0.00,,OVC250,0.00,VWS V14.01,2013-04-06 04:10:00,
2013-04-05 23:15:00,59.7,40.5,29.74,SSE,163,14.0,22.0,49,0.00,,OVC250,0.00,VWS V14.01,2013-04-06 04:15:00,
2013-04-05 23:21:00,59.6,41.0,29.74,SSW,194,17.0,19.0,50,0.00,,OVC250,0.00,VWS V14.01,2013-04-06 04:21:00,
2013-04-05 23:26:00,59.6,40.4,29.74,South,169,17.0,22.0,49,0.00,,OVC250,0.00,VWS V14.01,2013-04-06 04:26:00,
2013-04-05 23:31:00,59.4,40.8,29.74,South,181,14.0,16.0,50,0.00,,OVC250,0.00,VWS V14.01,2013-04-06 04:31:00,
2013-04-05 23:37:00,59.3,40.7,29.73,South,176,10.0,20.0,50,0.00,,OVC250,0.00,VWS V14.01,2013-04-06 04:37:00,
2013-04-05 23:42:00,59.1,40.5,29.73,South,181,12.0,19.0,50,0.00,,BKN250,0.00,VWS V14.01,2013-04-06 04:42:00,
2013-04-05 23:47:00,59.0,40.4,29.73,SSW,192,10.0,21.0,50,0.00,,BKN250,0.00,VWS V14.01,2013-04-06 04:47:00,
2013-04-05 23:52:00,59.1,40.5,29.73,SSE,164,13.0,18.0,50,0.00,,BKN250,0.00,VWS V14.01,2013-04-06 04:52:00,
2013-04-05 23:57:00,59.1,40.5,29.73,South,181,17.0,18.0,50,0.00,,BKN250,0.00,VWS V14.01,2013-04-06 04:57:00,